Helicity
35 26 3 33 22 89 255 145 -19 92 120 49 28 47 30 -6 12 -12 -5 8 28 21 15 -17 0 27 41 32 35 39 45 20 7 33 99 69 59 77 54 33 57 91 122 148
28 27 23 23 -30 69 218 115 187 117 100 27 42 48 24 4 10 -6 0 10 5 -12 1 11 -8 27 37 34 18 23 64 15 -53 -15 56 62 49 118 59 27 39 94 56 89
9 13 45 16 7 54 175 101 67 106 35 9 31 66 49 24 5 -10 -20 -1 -10 9 7 -20 16 -12 15 25 27 5 -3 25 25 -29 -14 59 -7 83 85 26 79 85 86 54
-16 11 -16 43 161 21 119 100 38 22 64 20 31 24 25 31 14 -16 -13 -7 3 22 27 12 16 18 4 24 27 0 -9 33 30 12 35 59 36 30 48 26 17 10 -1 64
-3 26 13 26 192 253 151 71 42 62 21 60 94 53 46 30 13 -2 12 14 5 5 28 40 45 21 2 23 30 10 18 17 0 18 -18 0 24 44 45 35 46 45 45 82
-13 65 151 223 -19 116 138 80 95 35 24 53 114 71 36 15 -13 3 -11 0 16 20 18 4 11 4 6 9 5 0 3 1 3 14 6 24 36 71 34 25 35 18 58 63
19 117 241 330 40 37 99 74 62 28 33 74 64 35 59 19 11 2 -5 -18 12 3 -18 -1 2 1 0 -11 -13 0 2 -1 -6 -2 -12 -9 13 8 11 58 64 60 42 33
173 245 91 105 168 103 114 85 69 23 38 63 87 54 52 76 50 46 7 -13 -8 -2 8 37 54 46 37 -3 -28 -10 3 11 -14 -21 -17 -9 -16 17 6 13 59 64 35 38
263 68 96 97 95 119 135 114 77 20 -5 73 43 96 71 78 53 56 11 0 3 -6 3 45 91 105 93 107 49 -18 -14 -16 -13 1 -18 -26 -11 15 -2 -7 34 45 51 55
246 150 54 39 103 140 100 100 84 7 3 87 98 76 34 22 34 21 17 19 4 -17 45 55 68 88 73 130 140 98 50 32 57 15 -9 -15 -2 -2 13 -35 -4 24 25 23
204 221 105 18 37 102 121 108 86 20 27 112 84 71 29 48 27 25 32 13 10 19 51 54 62 69 94 91 77 80 99 108 97 63 45 27 -5 -9 -15 -9 35 33 34 30
115 166 28 5 17 106 160 95 123 95 54 97 87 106 91 71 36 -1 27 19 31 29 27 40 46 64 79 90 65 33 74 59 63 56 48 1 3 7 1 -6 -11 42 42 37
171 102 50 108 24 88 123 92 61 95 103 135 107 146 159 108 69 42 12 21 7 9 7 28 37 55 62 81 74 65 44 17 35 40 17 2 10 12 1 -5 -11 -15 7 33
200 106 63 125 85 77 93 81 66 53 59 53 90 116 96 139 79 26 15 -14 -10 7 12 19 31 39 31 58 45 62 55 51 50 25 15 9 5 10 13 11 -13 -20 -17 -5
120 133 124 125 122 92 106 88 87 64 27 46 91 106 124 117 72 73 75 42 5 20 6 6 31 24 36 28 30 52 87 75 76 33 49 43 33 32 12 13 8 -12 -15 -2
205 179 144 137 104 84 99 84 82 64 10 39 62 75 89 116 104 95 97 76 51 -1 -5 4 5 11 19 44 44 17 42 57 49 36 69 47 61 51 21 15 7 -1 -1 -2
278 301 205 173 165 129 102 89 67 70 36 52 45 63 84 93 88 82 86 76 49 -4 -15 -7 13 17 26 36 46 24 45 61 69 70 100 60 50 44 35 27 20 20 21 23
293 368 253 199 109 55 95 114 104 91 35 56 53 54 76 79 71 57 68 47 44 44 2 -8 18 20 23 35 32 37 59 79 76 77 47 54 72 56 46 40 43 45 38 36
332 355 290 274 197 135 102 52 101 84 47 41 54 44 39 93 83 61 62 47 30 34 23 25 26 36 43 45 61 83 87 78 84 86 78 73 64 60 62 64 68 68 65 61
385 304 314 194 234 116 75 86 98 94 74 45 48 70 56 81 107 65 58 50 45 23 33 58 54 26 -4 28 42 83 106 90 178 152 85 71 65 71 82 72 78 81 85 81
377 216 202 280 192 156 123 112 95 91 51 35 46 79 67 62 88 75 45 39 41 31 33 79 55 46 43 45 121 85 135 130 113 94 100 102 97 103 92 79 74 77 75 67
168 198 198 305 216 182 116 108 109 68 44 57 86 134 116 89 93 89 68 69 57 39 68 76 62 43 48 68 127 125 160 164 131 107 126 121 111 96 85 78 67 70 74 73
290 258 172 209 137 122 90 95 116 68 39 61 128 211 174 141 109 95 73 72 94 87 77 79 63 56 63 94 139 163 160 150 132 121 124 123 108 99 85 85 80 79 80 79
246 201 178 115 92 102 53 76 54 53 51 92 201 209 147 150 117 74 86 93 106 109 94 87 58 41 70 89 109 185 150 128 122 118 122 121 110 95 95 95 102 95 81 76
197 169 117 75 68 50 69 45 81 104 72 157 172 177 103 147 113 76 111 102 79 68 57 60 42 39 67 84 104 128 132 115 106 106 112 106 105 103 90 95 105 110 104 87
189 135 109 95 97 58 66 64 64 141 67 135 173 138 124 124 114 112 105 135 93 101 70 53 58 54 53 92 86 90 108 106 97 97 101 98 95 94 77 95 107 110 111 108
126 105 113 82 112 96 84 89 73 108 153 189 169 153 141 127 140 137 119 117 108 66 61 66 53 61 74 87 91 100 109 102 86 89 94 86 81 87 103 97 80 97 101 105
Wind_Speed
65 62 61 55 41 29 35 40 49 41 28 52 47 46 39 36 42 39 36 38 40 42 43 43 41 41 38 22 26 20 18 22 24 19 23 26 15 14 13 20 25 26 26 21
63 62 65 64 54 57 47 42 40 37 49 58 53 42 37 37 45 43 39 38 37 40 43 45 42 38 34 24 33 20 19 20 23 16 20 18 14 20 20 13 14 18 26 26
59 63 64 65 67 68 53 50 59 54 60 50 47 46 42 42 43 43 40 40 40 42 41 40 41 38 34 26 24 28 35 14 22 24 23 20 16 19 24 14 13 13 13 12
58 66 65 63 65 86 54 54 62 60 63 68 55 46 43 51 50 43 42 39 39 42 42 41 40 38 35 30 21 31 38 46 30 13 21 20 15 16 22 20 16 16 13 10
53 64 64 68 76 79 61 67 59 52 48 56 63 50 50 56 51 49 45 40 43 40 40 38 42 42 40 37 29 37 28 42 43 46 31 13 13 15 19 21 18 12 14 17
51 62 63 65 82 98 71 58 47 48 50 51 56 54 52 60 55 43 42 46 47 41 42 43 44 40 39 37 36 36 36 38 39 41 37 35 16 22 25 24 21 22 20 23
50 59 72 81 75 101 60 58 50 48 50 52 51 48 50 65 51 51 48 49 45 43 46 47 43 41 40 38 37 35 35 35 35 36 34 35 29 30 25 21 23 26 25 27
47 52 59 54 74 65 56 52 48 43 43 45 41 42 49 48 41 49 52 44 43 47 45 43 42 40 39 37 36 36 35 37 37 35 35 36 31 27 27 29 29 30 29 31
33 47 47 64 51 45 48 45 40 36 36 48 42 41 59 59 52 49 46 43 44 42 39 37 39 40 39 40 38 37 38 37 38 38 38 35 32 30 29 27 25 30 30 34
24 33 53 50 80 48 43 40 35 33 31 37 39 45 68 50 48 50 49 47 44 39 39 38 38 40 38 40 41 39 39 38 41 40 39 33 32 29 28 29 25 28 29 30
39 49 69 104 89 53 36 36 32 34 31 33 33 37 52 49 49 53 51 48 41 42 39 38 38 38 38 38 37 38 39 42 42 41 41 39 33 34 31 31 26 30 34 36
42 46 55 103 83 60 38 36 26 18 21 32 22 18 26 36 39 46 53 38 45 43 41 38 39 37 37 38 38 36 38 37 40 39 40 40 39 39 36 34 30 30 34 36
49 68 43 58 67 60 40 38 36 23 26 24 27 32 31 25 31 38 46 40 41 39 37 39 37 35 37 37 34 36 34 35 37 40 38 40 39 37 35 33 31 28 20 35
66 54 45 58 57 50 40 42 36 27 30 33 34 31 32 32 31 36 37 39 40 41 37 36 35 34 34 34 34 33 34 37 36 35 35 36 33 34 34 33 31 28 25 23
67 49 54 56 55 40 30 32 32 32 33 35 38 33 27 25 23 20 18 18 39 39 35 34 33 34 35 32 31 27 31 32 34 32 32 33 32 32 30 29 27 25 23 21
44 42 48 50 52 45 41 41 35 31 26 28 33 37 33 27 20 16 18 24 27 36 34 33 32 32 32 32 29 28 31 31 31 31 35 32 34 31 28 24 22 22 21 21
36 37 40 43 48 46 40 41 39 33 27 31 28 33 39 34 31 29 25 25 27 16 31 30 30 30 29 27 26 29 32 32 32 33 34 29 27 25 24 23 23 22 21 21
34 30 33 35 31 33 35 31 34 32 26 28 31 31 38 37 33 25 29 27 26 28 26 27 26 26 24 22 24 30 33 34 32 30 28 29 29 26 24 22 21 19 17 15
33 28 27 33 41 45 39 30 28 29 35 33 33 25 32 29 26 22 25 27 24 31 23 23 24 21 19 22 25 29 31 29 28 29 28 27 24 23 22 22 23 20 16 13
28 33 38 38 42 36 33 33 42 41 39 36 33 27 27 14 18 17 21 26 22 23 23 26 20 10 24 20 22 26 29 27 30 25 21 20 19 20 22 23 22 20 19 18
41 45 41 40 37 36 37 43 46 46 46 42 36 30 14 24 11 14 19 23 23 23 22 23 27 23 17 15 20 22 27 26 25 23 23 21 21 20 22 24 24 23 21 19
43 31 23 34 37 38 45 49 44 43 46 34 31 25 18 16 20 18 18 22 23 20 23 24 23 23 19 18 20 21 25 24 21 21 22 23 23 23 25 25 23 21 20 19
36 32 36 41 42 52 52 55 48 41 33 31 23 19 20 18 22 21 21 20 19 25 22 21 17 28 22 17 19 20 22 20 18 19 20 22 23 25 26 26 24 22 22 19
43 41 49 49 52 56 50 53 44 34 26 6 15 16 22 19 18 20 22 23 24 23 23 24 26 21 17 17 20 20 19 17 16 16 18 19 22 24 26 26 25 24 23 22
43 42 52 57 48 42 44 37 37 34 13 10 10 19 22 19 21 22 22 24 22 19 23 27 29 23 17 19 18 18 16 15 14 14 16 19 23 26 28 25 24 24 23 22
43 47 46 44 48 46 44 42 37 32 20 21 25 24 25 25 20 21 20 21 20 27 23 24 25 20 18 17 17 15 14 13 12 14 16 20 23 26 27 26 25 23 22 20
52 54 51 46 46 47 45 43 38 30 28 30 27 27 25 20 27 28 21 24 29 26 24 24 21 16 15 15 16 14 12 11 11 14 18 22 26 28 28 29 27 24 22 20
Wind_Direction
272 267 259 256 259 222 215 229 228 226 233 210 216 210 202 181 157 151 127 107 100 95 92 88 90 96 98 120 128 194 212 180 152 147 166 159 237 304 278 229 213 216 214 231
264 260 246 238 241 238 222 225 224 229 218 206 206 209 202 188 164 155 132 115 112 103 98 87 96 105 115 125 110 152 216 212 184 188 172 158 311 315 325 298 256 234 227 231
247 245 234 234 236 225 220 222 207 208 213 216 206 200 194 180 177 160 139 121 116 107 101 95 97 105 114 143 135 132 125 219 175 170 193 200 311 323 338 317 251 245 228 240
239 233 230 232 231 205 221 216 203 205 200 201 200 200 191 169 162 163 147 130 120 111 103 100 98 101 116 144 160 140 122 110 144 295 204 196 215 323 344 347 303 258 252 270
239 225 224 222 217 205 212 198 199 205 205 197 189 198 187 165 166 151 149 136 125 117 110 106 105 102 106 115 125 114 149 113 121 113 120 354 330 303 320 338 348 342 321 298
233 222 224 218 203 193 198 202 206 202 200 194 191 193 181 166 156 167 156 130 122 119 111 105 105 106 108 115 107 107 114 112 120 117 138 154 252 291 307 322 328 313 300 308
232 228 221 214 169 177 199 200 201 202 197 195 196 195 188 155 170 149 144 128 128 122 110 104 103 103 105 108 106 107 107 116 116 119 126 126 160 293 28 358 320 322 328 325
239 237 211 167 149 195 200 203 205 206 198 200 203 198 189 187 185 160 140 143 130 116 112 110 107 105 104 105 104 101 106 108 109 115 118 122 123 285 334 283 292 304 321 322
243 201 155 146 168 191 201 203 210 211 200 200 203 200 180 177 172 165 156 145 135 129 127 120 108 102 105 102 105 103 101 103 105 108 108 112 129 323 331 337 317 312 322 321
215 172 178 157 187 194 200 207 215 215 210 208 204 199 174 190 180 161 154 142 136 138 126 119 113 106 110 102 101 101 101 102 101 104 103 113 133 138 321 131 96 321 329 326
209 205 193 173 188 199 206 209 219 215 212 207 212 208 192 192 182 154 149 137 147 134 128 121 117 113 113 107 107 104 102 97 97 99 97 98 129 133 129 128 330 324 324 320
214 210 182 171 192 199 209 206 212 215 217 203 212 213 216 212 202 173 161 160 139 132 122 123 114 114 113 108 104 104 100 102 98 100 99 105 112 116 131 141 136 337 324 327
213 195 159 192 196 199 212 206 205 213 200 205 214 213 218 236 222 203 169 168 149 142 137 116 114 113 110 108 110 107 105 104 100 98 102 104 102 117 123 129 129 129 52 331
202 178 153 190 193 200 211 207 214 217 209 210 215 226 222 231 233 215 205 148 144 131 136 117 110 112 113 112 104 107 101 101 100 99 103 103 105 107 110 112 121 126 125 119
194 145 186 191 194 201 210 215 224 220 220 214 211 221 238 248 256 274 295 39 147 146 126 120 113 107 106 104 98 106 110 100 98 96 109 101 108 110 105 99 104 112 110 114
167 168 186 192 196 206 213 217 229 229 236 223 220 223 231 242 263 300 289 258 245 160 119 110 113 117 104 101 103 102 112 113 104 91 102 97 98 100 90 92 97 98 103 104
157 172 184 192 201 210 221 224 227 227 241 230 228 227 226 234 239 246 263 266 268 148 99 91 95 105 102 99 101 102 112 108 100 94 93 91 99 92 89 83 80 81 85 83
157 168 181 189 194 213 230 236 227 232 244 242 238 241 229 234 242 277 270 285 312 317 47 75 71 90 93 100 118 103 107 101 99 97 92 83 86 83 75 70 64 63 69 76
158 169 186 204 217 219 227 236 239 244 242 243 246 255 251 255 270 305 302 316 350 319 21 43 55 71 94 103 102 119 120 109 107 98 85 79 77 74 63 55 46 45 47 61
164 188 207 214 218 221 231 242 231 238 245 251 252 260 266 298 294 354 355 344 20 29 19 21 29 65 182 138 113 124 126 109 103 94 84 82 73 59 48 40 40 40 42 46
206 212 221 221 221 228 236 232 230 232 237 245 249 260 301 278 347 31 20 35 35 27 36 21 13 22 42 107 131 112 124 112 106 82 69 69 58 52 40 35 35 34 36 38
212 210 221 217 229 236 233 233 240 243 245 253 250 256 288 309 303 357 20 28 30 44 37 27 26 20 35 52 120 111 120 112 93 76 64 56 52 43 34 28 27 25 26 31
200 222 226 225 232 231 236 232 237 246 253 251 250 252 282 298 311 345 14 34 42 28 23 17 26 8 28 58 104 102 108 103 84 65 57 49 40 32 25 19 19 18 15 19
219 221 218 229 233 238 240 240 245 254 259 221 224 269 285 298 317 350 3 7 13 18 12 4 11 20 41 81 98 99 103 98 81 59 49 39 26 19 15 12 12 9 6 9
228 230 231 234 241 250 246 251 247 251 232 199 252 274 294 297 318 332 351 359 6 18 17 12 14 25 72 98 102 99 95 86 72 50 37 24 14 8 4 4 5 5 2 0
238 241 242 246 242 246 244 245 247 238 209 242 266 277 289 298 323 330 334 350 354 1 4 15 22 51 82 93 103 98 86 74 58 38 24 12 4 1 359 359 359 358 357 354
240 241 244 245 247 245 245 243 242 229 224 248 275 278 293 317 311 314 332 331 342 353 5 12 25 56 80 83 85 78 66 57 45 25 10 3 1 359 357 353 353 354 352 349